Weather History for KHKY - March, 2011

Change the Weather History Date:

Sunday, March 6, 2011

  Actual Average Record
Temperature  
Mean Temperature 47 °F -  
Max Temperature 57 °F 57 °F 78 °F (1956)
Min Temperature 37 °F 37 °F 11 °F (1960)
Degree Days  
Heating Degree Days 18    
Moisture  
Dew Point 46 °F    
Average Humidity 90    
Maximum Humidity 100    
Minimum Humidity 65    
Precipitation  
Precipitation 2.12 in - - ()
Sea Level Pressure  
Sea Level Pressure 29.81 in    
Wind  
Wind Speed 7 mph (NW)    
Max Wind Speed 21 mph    
Max Gust Speed 26 mph    
Visibility 6 miles    
Events Rain    
Averages and records for this station are not official NWS values.
T = Trace of Precipitation, MM = Missing Value Source: NWS Daily Summary

Daily Weather History Graph

Daily Weather History Graph

Search for Another Location

Airport or City:

Trip Planner

Search our weather history database for the weather conditions in past years. The results will help you decide how hot, cold, wet, or windy it might be!

Date:

Astronomy

Mar. 06, 2011 Rise Set
Actual Time 6:49 AM EST 6:24 PM EST
Civil Twilight 6:23 AM EST 6:50 PM EST
Nautical Twilight 5:54 AM EST 7:20 PM EST
Astronomical Twilight 5:24 AM EST 7:49 PM EST
Moon 7:17 AM EST (3/6) 8:20 PM EST (3/6)
Length of Visible Light 12h 26m
Length of Day
11h 35m
Waxing Crescent, 3% of the Moon is Illuminated
Mar 6
Waxing Crescent
Mar 12
First Quarter
Mar 19
Full
Mar 26
Last Quarter
Apr 3
New

Hourly Weather History & Observations

Time (EST) Temp. Windchill Dew Point Humidity Pressure Visibility Wind Dir Wind Speed Gust Speed Precip Events Conditions
12:53 AM 55.0 °F - 54.0 °F 96% 29.94 in 5.0 mi Calm Calm - 0.00 in   Overcast
1:31 AM 55.4 °F - 53.6 °F 94% 29.96 in 6.0 mi Variable 5.8 mph - 0.02 in Rain Light Rain
1:53 AM 55.0 °F - 54.0 °F 96% 29.92 in 7.0 mi Variable 6.9 mph - 0.02 in Rain Light Rain
2:53 AM 55.0 °F - 54.0 °F 96% 29.88 in 4.0 mi Variable 6.9 mph - 0.13 in Rain Rain
3:38 AM 55.4 °F - 53.6 °F 94% 29.88 in 6.0 mi Variable 5.8 mph - 0.13 in Rain Light Rain
3:53 AM 55.9 °F - 54.0 °F 93% 29.83 in 5.0 mi South 8.1 mph - 0.16 in Rain Rain
4:41 AM 55.4 °F - 55.4 °F 100% 29.87 in 4.0 mi South 5.8 mph - 0.19 in Rain Heavy Rain
4:53 AM 55.9 °F - 55.0 °F 97% 29.82 in 4.0 mi South 5.8 mph - 0.23 in Rain Heavy Rain
5:00 AM 55.4 °F - 55.4 °F 100% 29.85 in 3.0 mi SSW 9.2 mph - 0.05 in Rain Heavy Rain
5:11 AM 55.4 °F - 55.4 °F 100% 29.85 in 4.0 mi SSW 8.1 mph - 0.08 in Rain Heavy Rain
5:44 AM 55.4 °F - 55.4 °F 100% 29.83 in 2.5 mi South 3.5 mph - 0.21 in Rain Heavy Rain
5:53 AM 55.9 °F - 55.0 °F 97% 29.80 in 3.0 mi South 5.8 mph - 0.24 in Rain Heavy Rain
6:03 AM 55.4 °F - 55.4 °F 100% 29.83 in 8.0 mi South 8.1 mph - 0.01 in Rain Rain
6:53 AM 55.9 °F - 55.9 °F 100% 29.76 in 4.0 mi Variable 3.5 mph - 0.20 in Rain Heavy Rain
7:35 AM 55.4 °F - 55.4 °F 100% 29.77 in 2.5 mi Variable 5.8 mph - 0.17 in Rain Heavy Rain
7:53 AM 55.9 °F - 55.9 °F 100% 29.72 in 2.5 mi Variable 6.9 mph - 0.24 in Rain Heavy Rain
8:53 AM 57.0 °F - 55.9 °F 96% 29.68 in 4.0 mi Variable 6.9 mph - 0.15 in Rain Rain
9:23 AM 53.6 °F - 53.6 °F 100% 29.76 in 1.0 mi NW 20.7 mph 26.5 mph 0.18 in Rain Heavy Rain
9:32 AM 48.2 °F - 46.4 °F 93% 29.75 in 0.8 mi NW 18.4 mph 25.3 mph 0.32 in Rain Heavy Rain
9:39 AM 48.2 °F - 46.4 °F 93% 29.76 in 2.0 mi WNW 16.1 mph 25.3 mph 0.36 in Rain Heavy Rain
9:49 AM 48.2 °F - 46.4 °F 93% 29.76 in 3.0 mi NW 13.8 mph 21.9 mph 0.39 in Rain Heavy Rain
9:53 AM 48.0 °F - 46.0 °F 93% 29.73 in 4.0 mi NW 12.7 mph 20.7 mph 0.40 in Rain Heavy Rain
10:53 AM 46.9 °F - 45.0 °F 93% 29.72 in 4.0 mi NW 12.7 mph - 0.10 in Rain Heavy Rain
11:39 AM 48.2 °F - 46.4 °F 93% 29.77 in 2.5 mi NNW 4.6 mph - 0.04 in Rain Heavy Rain
11:44 AM 48.2 °F - 46.4 °F 93% 29.77 in 1.8 mi North 9.2 mph - 0.06 in Rain Heavy Rain
11:53 AM 46.9 °F - 46.0 °F 97% 29.74 in 3.0 mi NNW 3.5 mph - 0.08 in Rain Rain
12:50 PM 48.2 °F - 46.4 °F 93% 29.75 in 3.0 mi North 9.2 mph - 0.06 in Rain Rain
12:53 PM 48.0 °F - 46.0 °F 93% 29.71 in 4.0 mi North 8.1 mph - 0.06 in Rain Rain
1:10 PM 48.2 °F - 46.4 °F 93% 29.75 in 10.0 mi NW 9.2 mph - 0.00 in   Mostly Cloudy
1:21 PM 48.2 °F - 44.6 °F 87% 29.74 in 10.0 mi NW 6.9 mph - 0.00 in   Mostly Cloudy
1:53 PM 46.9 °F - 44.1 °F 90% 29.70 in 8.0 mi NW 8.1 mph - 0.02 in Rain Rain
2:53 PM 44.1 °F 36.8 °F 39.9 °F 85% 29.76 in 4.0 mi NW 16.1 mph 23.0 mph 0.06 in Rain Rain
3:53 PM 44.1 °F 37.7 °F 39.9 °F 85% 29.79 in 10.0 mi WNW 12.7 mph 18.4 mph 0.03 in   Overcast
4:53 PM 43.0 °F 36.4 °F 34.0 °F 71% 29.80 in 10.0 mi NW 12.7 mph - N/A   Clear
5:53 PM 42.1 °F 35.2 °F 30.9 °F 65% 29.82 in 10.0 mi NNW 12.7 mph 26.5 mph N/A   Clear
6:53 PM 39.9 °F 33.9 °F 30.9 °F 70% 29.86 in 10.0 mi NNW 9.2 mph - N/A   Clear
7:53 PM 39.0 °F 32.3 °F 30.0 °F 70% 29.87 in 10.0 mi NW 10.4 mph - N/A   Clear
8:53 PM 39.2 °F 33.0 °F 28.4 °F 65% 29.91 in 10.0 mi NNW 9.2 mph 20.7 mph N/A   Clear
9:53 PM 37.9 °F 31.5 °F 28.9 °F 70% 29.91 in 10.0 mi NNW 9.2 mph 17.3 mph N/A   Clear
10:53 PM 37.0 °F 31.6 °F 28.9 °F 73% 29.93 in 10.0 mi NW 6.9 mph - N/A   Clear
11:53 PM 37.0 °F 28.9 °F 28.0 °F 70% 29.93 in 10.0 mi NW 12.7 mph - N/A   Clear